Temp
81 78 78 77 77 78 78 78 76 76 75 74 73 73 71 70 70 69 68 69 68 68
80 81 78 77 77 77 78 80 77 77 76 75 73 72 71 70 69 70 69 69 70 68
81 80 80 77 77 77 78 77 78 76 76 74 74 72 70 69 70 69 69 69 68 70
81 81 80 79 77 78 78 76 77 77 76 75 73 73 71 69 69 69 69 69 68 68
81 81 80 81 79 79 79 75 77 77 75 75 75 73 72 70 72 69 68 68 67 68
81 80 80 80 81 80 80 77 77 77 76 75 74 73 72 72 69 69 69 68 67 69
81 81 81 81 81 78 80 79 76 77 76 75 75 73 73 71 68 68 69 69 69 69
82 82 81 81 80 81 78 79 77 75 75 74 74 74 72 72 69 68 68 69 70 71
82 81 80 80 80 79 80 78 76 74 73 73 76 70 69 72 70 68 68 67 68 72
82 81 80 80 79 78 78 77 76 74 73 72 74 67 67 69 69 68 67 67 71 69
82 81 80 80 79 79 79 79 76 74 74 74 73 65 65 68 69 67 68 70 70 69
82 81 80 79 79 80 78 74 74 75 75 74 69 62 62 65 67 65 68 69 69 68
83 82 80 80 79 79 77 76 75 73 73 68 70 61 61 64 68 66 67 68 67 65
84 81 81 80 79 77 75 73 74 72 71 71 71 65 58 59 69 69 68 67 65 65
MSLP
1010.79 1011.27 1011.59 1012.01 1012.54 1012.96 1013.27 1013.56 1013.89 1014.54 1015.02 1015.38 1015.78 1016.19 1016.61 1017.23 1017.58 1017.72 1017.90 1017.97 1018.06 1017.91
1009.96 1010.48 1010.81 1011.25 1011.68 1012.29 1012.59 1012.98 1013.54 1014.04 1014.43 1014.95 1015.35 1015.95 1016.58 1016.88 1017.23 1017.48 1017.60 1017.79 1017.80 1017.86
1009.00 1009.70 1010.20 1010.66 1011.02 1011.48 1011.88 1012.32 1012.96 1013.59 1014.12 1014.57 1015.00 1015.51 1016.10 1016.52 1016.83 1017.22 1017.43 1017.55 1017.79 1017.77
1008.09 1008.75 1009.55 1009.99 1010.39 1010.74 1011.22 1011.73 1012.36 1013.04 1013.61 1013.99 1014.41 1014.81 1015.38 1015.94 1016.50 1016.94 1017.13 1017.25 1017.46 1017.66
1007.20 1007.97 1008.68 1009.10 1009.56 1009.98 1010.51 1011.12 1011.63 1012.14 1012.60 1013.24 1013.79 1014.25 1014.95 1015.56 1015.87 1016.33 1016.72 1016.94 1017.27 1017.34
1006.33 1007.08 1007.55 1008.13 1008.68 1009.22 1009.77 1010.28 1010.82 1011.33 1011.73 1012.35 1012.99 1013.73 1014.23 1014.77 1015.45 1015.97 1016.28 1016.53 1016.84 1016.95
1005.18 1005.77 1006.42 1007.15 1007.87 1008.38 1008.84 1009.45 1010.01 1010.46 1011.12 1011.80 1012.44 1013.12 1013.69 1014.34 1014.89 1015.33 1015.76 1016.11 1016.37 1016.49
1003.96 1004.73 1005.68 1006.39 1006.94 1007.54 1008.19 1008.63 1009.30 1010.11 1010.79 1011.37 1011.99 1012.47 1012.97 1013.69 1014.21 1014.88 1015.33 1015.49 1015.73 1015.91
1003.08 1003.98 1004.68 1005.44 1006.10 1006.83 1007.49 1008.14 1008.86 1009.49 1010.17 1010.88 1011.36 1011.82 1012.61 1013.25 1013.92 1014.49 1015.01 1015.34 1015.27 1015.35
1001.89 1002.80 1003.62 1004.57 1005.41 1006.07 1006.79 1007.63 1008.22 1008.98 1009.67 1010.32 1010.78 1011.44 1012.28 1012.82 1013.27 1013.73 1014.47 1014.74 1014.87 1014.90
1000.70 1001.62 1002.75 1003.73 1004.53 1005.46 1006.24 1006.88 1007.68 1008.48 1009.14 1009.84 1010.47 1011.18 1011.55 1012.15 1012.90 1013.50 1013.85 1014.15 1014.39 1014.43
999.61 1000.69 1001.80 1002.72 1003.72 1004.67 1005.59 1006.47 1007.17 1007.86 1008.61 1009.36 1010.31 1010.87 1011.56 1012.23 1012.76 1013.16 1013.42 1013.59 1013.92 1014.08
998.78 999.84 1000.84 1002.00 1003.13 1003.94 1004.85 1005.74 1006.54 1007.39 1008.00 1008.75 1009.78 1010.44 1011.12 1011.82 1012.25 1012.72 1012.96 1012.99 1013.13 1013.46
998.24 999.27 1000.40 1001.61 1002.69 1003.54 1004.55 1005.53 1006.40 1007.19 1008.18 1008.66 1009.16 1010.07 1010.68 1011.59 1012.05 1012.27 1012.64 1012.82 1012.80 1012.82
Wind_Speed
14 6 7 7 7 7 9 8 7 9 8 8 8 6 6 4 3 4 4 3 1 2
14 14 8 8 7 7 7 9 10 12 12 10 8 7 7 5 5 5 5 5 5 3
16 14 11 7 9 8 8 7 13 12 12 10 10 8 9 6 5 6 5 4 5 4
16 15 13 11 8 10 8 9 13 13 13 12 12 11 10 8 7 7 7 5 6 6
16 15 15 15 12 11 11 9 14 15 14 14 13 12 12 10 8 8 8 7 6 7
17 17 17 17 15 13 13 11 15 15 16 15 14 12 12 11 8 6 8 7 7 7
19 19 18 16 17 11 14 15 13 15 15 14 13 12 12 10 8 7 7 7 7 7
19 18 16 16 16 17 11 13 12 11 11 10 11 10 12 11 9 8 7 7 7 9
18 17 17 16 15 14 15 11 11 12 10 10 9 13 15 12 9 7 7 7 7 7
19 18 18 15 14 14 15 10 12 10 10 10 11 13 16 14 7 8 7 7 8 6
19 19 17 16 15 13 12 14 11 10 10 10 8 14 15 16 7 6 7 8 9 8
20 18 17 18 15 13 11 7 10 9 11 9 6 12 10 10 6 6 6 5 6 6
18 18 17 17 15 11 10 11 10 9 10 11 9 13 14 10 5 5 5 5 7 13
16 16 16 15 12 12 10 9 8 9 6 9 10 10 14 13 7 6 5 7 5 5
Wind_Direction
201 203 206 176 173 175 176 183 173 161 160 168 169 180 152 151 178 189 185 197 227 159
194 204 200 188 173 181 181 181 176 173 174 171 175 168 163 170 188 198 197 212 210 194
196 200 202 182 191 180 195 170 178 177 177 170 178 169 171 178 194 188 202 201 211 234
195 196 197 198 192 188 190 165 174 177 178 183 179 180 178 180 188 192 203 198 190 214
194 193 197 206 198 191 196 171 177 180 182 187 190 181 181 185 192 193 200 202 193 211
194 195 200 203 203 195 195 188 185 184 189 187 190 183 186 188 189 191 200 195 201 212
194 198 201 200 203 192 194 193 185 192 191 192 187 181 185 182 181 190 200 203 208 206
195 197 199 203 200 205 195 196 189 178 187 183 181 181 182 189 186 184 201 206 205 210
192 193 197 201 200 195 202 195 179 183 175 179 189 183 174 185 184 178 194 215 220 213
189 193 197 194 192 192 195 184 185 176 170 182 193 174 173 179 181 177 193 204 219 218
190 193 189 189 189 185 186 193 177 172 178 182 188 168 187 192 186 178 193 208 214 209
189 187 186 188 181 182 175 157 172 167 179 183 145 162 161 165 175 186 217 221 225 215
183 183 181 174 173 168 159 164 161 162 167 158 158 177 178 170 163 193 214 236 227 221
175 170 165 162 162 155 155 148 152 144 147 164 164 177 174 179 191 206 207 221 220 225